Flag for Thailand Weather past 2 weeks in Hat Yai, Thailand

79 °F


Feels Like: 83 °F
Forecast: 75 / 89 °F
Wind: 5 mph from Southeast

Location: Hat Yai Airport

Current Time: Oct 9, 2015 at 7:17:35 PM

Latest Report: Oct 9, 2015 at 6:30 PM

Visibility: 3 mi

Pressure: 29.83 "Hg

Humidity: 94%

Dew point: 77 °F

Location of Hat YaiLocation

Historic Weather in Hat Yai — Graph


Hat Yai temperature yesterday

Maximum temperature yesterday: 91 °F (at 1:00 PM)
Minimum temperature yesterday: 75 °F (at 5:00 AM)
Average temperature yesterday: 82 °F

Past Weeks' High & Low Weather Summary

High91 °F (Sep 30, 1:30 PM)100% (Sep 25, 5:30 AM)29.98 "Hg (Sep 25, 5:30 AM)
Low73 °F (Sep 25, 5:30 AM)59% (Sep 26, 11:00 AM)29.71 "Hg (Sep 26, 3:30 PM)
Average81 °F86%29.85 "Hg
* Reported Sep 24 6:00 PM — Oct 9 6:00 PM, Hat Yai, Weather by CustomWeather, © 2015

Note: Actual official high and low records may vary slightly from our data, if they occured in-between our weather recording intervals... More about our weather records


Hat Yai weather history for previous 24 hours

Time TempWeatherWind HumidityBarometerVisibility
6:00 PM
Fri, Oct 9
81 °FFog.6 mph94%29.80 "Hg2 mi
5:30 PM81 °FFog.2 mph94%29.80 "Hg2 mi
5:00 PM82 °FFog.2 mph89%29.80 "Hg3 mi
4:30 PM82 °FFog.3 mph89%29.77 "Hg3 mi
4:00 PM82 °FFog.6 mph89%29.77 "Hg3 mi
3:30 PM84 °FPassing clouds.7 mph79%29.80 "Hg4 mi
3:00 PM84 °FBroken clouds.6 mph74%29.80 "Hg4 mi
2:30 PM84 °FBroken clouds.5 mph74%29.80 "Hg4 mi
2:00 PM84 °FScattered clouds.10 mph74%29.80 "Hg4 mi
1:30 PM82 °FScattered showers. Scattered clouds.12 mph84%29.83 "Hg3 mi
1:00 PM84 °FScattered showers. Scattered clouds.9 mph74%29.83 "Hg3 mi
12:30 PM86 °FFog.13 mph75%29.83 "Hg3 mi
12:00 PM90 °FFog.3 mph59%29.86 "Hg3 mi
11:30 AM90 °FFog.3 mph63%29.86 "Hg3 mi
11:00 AM90 °FFog.2 mph63%29.89 "Hg2 mi
10:30 AM88 °FFog.3 mph70%29.89 "Hg2 mi
10:00 AM86 °FFog.3 mph75%29.89 "Hg2 mi
9:30 AM84 °FFog.2 mph84%29.92 "Hg2 mi
9:00 AM81 °FFog.5 mph94%29.89 "Hg2 mi
8:30 AM79 °FFog.3 mph94%29.89 "Hg2 mi
8:00 AM77 °FFog.3 mph100%29.89 "Hg1 mi
7:30 AM77 °FFog.2 mph94%29.89 "Hg1 mi
7:00 AM75 °FFog.3 mph100%29.86 "Hg1 mi
6:30 AM75 °FFog.No wind100%29.86 "Hg1 mi
6:00 AM75 °FFog.3 mph100%29.86 "Hg1 mi
5:30 AM75 °FFog.3 mph100%29.86 "Hg1 mi
4:30 AM75 °FFog.3 mph100%29.83 "Hg2 mi
4:00 AM75 °FFog.No wind100%29.83 "Hg2 mi
3:30 AM75 °FFog.No wind100%29.83 "Hg3 mi
3:00 AM75 °FFog.No wind100%29.83 "Hg3 mi
2:30 AM75 °FFog.No wind100%29.86 "Hg3 mi
2:00 AM77 °FFog.No wind94%29.86 "Hg3 mi
1:30 AM77 °FFog.No wind94%29.86 "Hg3 mi
1:00 AM77 °FFog.5 mph94%29.89 "Hg3 mi
12:30 AM77 °FFog.No wind94%29.89 "Hg3 mi
12:00 AM77 °FFog.2 mph94%29.89 "Hg3 mi
11:30 PM
Thu, Oct 8
77 °FFog.6 mph94%29.89 "Hg3 mi
11:00 PM77 °FFog.3 mph94%29.89 "Hg3 mi
10:30 PM77 °FPassing clouds.3 mph94%29.92 "Hg4 mi
10:00 PM77 °FPassing clouds.3 mph94%29.92 "Hg4 mi
9:30 PM79 °FPassing clouds.2 mph89%29.89 "Hg5 mi
9:00 PM79 °FPassing clouds.2 mph89%29.89 "Hg5 mi
8:30 PM79 °FPassing clouds.3 mph84%29.89 "Hg5 mi
8:00 PM81 °FPassing clouds.6 mph89%29.86 "Hg4 mi
7:30 PM81 °FPassing clouds.5 mph89%29.86 "Hg4 mi
7:00 PM82 °FPassing clouds.3 mph84%29.83 "Hg4 mi
Weather by CustomWeather, © 2015

See weather overviewHow to use our weather pages